Home   Weather   Dushanbe   Past weeks

Flag for Tajikistan Past Weather in Dushanbe, Tajikistan — Yesterday and Last 2 Weeks

Now
46 °F

Fog.


Feels Like: 45 °F
Forecast: 37 / 59 °F
Wind: 3 mph from North

Location: Dushanbe Airport

Current Time: Dec 4, 2016 at 9:01:25 am

Latest Report: Dec 4, 2016 at 8:00 am


Visibility: 3 mi

Pressure: 30.33 "Hg (27.41 "Hg at 832m altitude)

Humidity: 87%

Dew Point: 43 °F

Location of DushanbeLocation

Past Weather in Dushanbe — Graph

°F

Dushanbe Temperature Yesterday

Maximum temperature yesterday: 63 °F (at 11:00 am)
Minimum temperature yesterday: 41 °F (at 3:00 am)
Average temperature yesterday: 53 °F

High & Low Weather Summary for the Past Weeks

 TemperatureHumidityPressure
High64 °F (Dec 2, 1:30 pm)100% (Nov 20, 4:00 am)30.69 "Hg (Nov 20, 4:00 am)
Low7 °F (Nov 27, 5:30 am)19% (Dec 2, 1:30 pm)30.09 "Hg (Nov 19, 7:00 am)
Average35 °F74%30.37 "Hg
* Reported Nov 19 7:00 am — Dec 4 7:30 am, Dushanbe, Weather by CustomWeather, © 2016

Note: Actual official high and low records may vary slightly from our data, if they occured in-between our weather recording intervals... More about our weather records

Advertising

Dushanbe Weather History for the Previous 24 Hours

Scroll right to see more
 ConditionsComfort  
Time TempWeatherWind HumidityBarometerVisibility
7:30 am
Sun, Dec 4
45 °FFog.3 mph93%30.33 "Hg2 mi
7:00 am46 °FPassing clouds.1 mph87%30.33 "Hg6 mi
6:30 am48 °FPassing clouds.6 mph87%30.30 "HgN/A
6:00 am50 °FPassing clouds.3 mph82%30.30 "HgN/A
5:30 am50 °FPassing clouds.6 mph82%30.27 "HgN/A
5:00 am50 °FPartly cloudy.6 mph88%30.27 "HgN/A
4:30 am50 °FPassing clouds.8 mph88%30.27 "HgN/A
4:00 am52 °FSprinkles. Passing clouds.10 mph77%30.30 "HgN/A
3:30 am50 °FSprinkles. Mostly cloudy.8 mph82%30.27 "HgN/A
3:00 am50 °FSprinkles. Mostly cloudy.8 mph82%30.27 "HgN/A
2:30 am52 °FSprinkles. Mostly cloudy.8 mph77%30.27 "HgN/A
2:00 am54 °FSprinkles. Overcast.8 mph67%30.27 "HgN/A
1:30 am52 °FPartly cloudy.10 mph77%30.24 "HgN/A
1:00 am54 °FSprinkles. Overcast.6 mph72%30.27 "HgN/A
12:30 am52 °FSprinkles. Mostly cloudy.10 mph82%30.24 "HgN/A
12:00 am52 °FSprinkles. Mostly cloudy.8 mph82%30.27 "Hg6 mi
11:30 pm
Sat, Dec 3
50 °FSprinkles. Mostly cloudy.8 mph88%30.27 "Hg5 mi
11:00 pm54 °FSprinkles. Mostly cloudy.3 mph77%30.27 "HgN/A
10:30 pm54 °FSprinkles. Mostly cloudy.3 mph72%30.27 "HgN/A
10:00 pm55 °FOvercast.8 mph63%30.24 "Hg6 mi
9:30 pm54 °FPassing clouds.3 mph72%30.27 "Hg4 mi
9:00 pm54 °FSprinkles. Passing clouds.3 mph72%30.24 "Hg4 mi
8:30 pm57 °FSprinkles. Mostly cloudy.3 mph51%30.24 "Hg4 mi
8:00 pm61 °FSprinkles. Overcast.6 mph45%30.24 "Hg6 mi
7:30 pm61 °FSprinkles. Mostly cloudy.3 mph45%30.21 "HgN/A
7:00 pm63 °FSprinkles. Overcast.8 mph37%30.21 "HgN/A
6:30 pm61 °FOvercast.10 mph36%30.18 "HgN/A
6:00 pm63 °FOvercast.13 mph34%30.18 "HgN/A
5:30 pm57 °FMostly cloudy.1 mph44%30.15 "Hg4 mi
5:00 pm63 °FOvercast.3 mph34%30.15 "Hg4 mi
4:30 pm61 °FMostly cloudy.6 mph39%30.15 "Hg6 mi
4:00 pm63 °FOvercast.10 mph32%30.12 "Hg4 mi
3:30 pm61 °FOvercast.3 mph39%30.15 "Hg4 mi
3:00 pm63 °FOvercast.3 mph30%30.15 "Hg6 mi
2:30 pm63 °FMostly cloudy.6 mph32%30.15 "Hg4 mi
2:00 pm63 °FPartly sunny.8 mph30%30.15 "Hg6 mi
1:00 pm63 °FPartly sunny.6 mph30%30.18 "HgN/A
12:30 pm63 °FOvercast.3 mph27%30.18 "HgN/A
12:00 pm61 °FOvercast.6 mph31%30.18 "Hg4 mi
11:30 am61 °FPartly sunny.6 mph34%30.21 "Hg4 mi
11:00 am63 °FPartly sunny.6 mph37%30.21 "Hg1 mi
10:30 am61 °FPartly sunny.8 mph29%30.21 "HgN/A
10:00 am59 °FPassing clouds.6 mph31%30.21 "Hg5 mi
9:30 am48 °FPartly sunny.3 mph62%30.21 "Hg1 mi
9:00 am48 °FPartly sunny.1 mph54%30.21 "Hg1 mi
Weather by CustomWeather, © 2016

See weather overviewHow to use our weather pages